Voltar ao catálogo

ONEWEB-0692

AtivoComunicaçõesPO
NORAD 61600·PAYLOAD·🇬🇧 United Kingdom

Lançado Oct 20, 2024 de Vandenberg Space Force Base

Loading…

Próximas Passagens (próximas 24 horas)

TLE

AtualizadoSource: CelesTrak SupGP

Época: Sep 14, 2026, 23:06 UTC

1 61600C 24188G   26257.96301343 -.00002877  00000+0 -81283-2 0  2573
2 61600  87.8963   3.2337 0001071  89.5144  13.4697 13.11418690    19

Acompanhe ONEWEB-0692 em tempo real com AllMySat

Download on the App Store